Phuket, Thailand

3:59 AM +07 on December 19, 2017 (GMT +0700)
Phuket International

Weather History for VTSP - November, 2014

Change the Weather History Date:

Wednesday, November 19, 2014

  Actual Average Record
Temperature  
Mean Temperature 82 °F -  
Max Temperature 90 °F 88 °F 93 °F (1996)
Min Temperature 73 °F 74 °F 71 °F (2013)
Cooling Degree Days 16    
Growing Degree Days 32 (Base 50)    
Moisture  
Dew Point 74 °F    
Average Humidity 77    
Maximum Humidity 94    
Minimum Humidity 53    
Precipitation  
Precipitation 0.20 in 0.15 in - ()
Sea Level Pressure  
Sea Level Pressure 29.84 in    
Wind  
Wind Speed 5 mph ()    
Max Wind Speed 13 mph    
Max Gust Speed -    
Visibility 5.3 miles    
Events Rain , Thunderstorm    
Averages and records for this station are not official NWS values.
T = Trace of Precipitation, MM = Missing Value Source: Averaged Metar Reports

Daily Weather History Graph

Daily Weather History Graph

Search for Another Location

Airport or City:

Trip Planner

Search our weather history database for the weather conditions in past years. The results will help you decide how hot, cold, wet, or windy it might be!

Date:

Astronomy

Nov. 19, 2014 Rise Set
Actual Time 6:19 AM +07 6:04 PM +07
Civil Twilight 5:57 AM +07 6:26 PM +07
Nautical Twilight 5:32 AM +07 6:51 PM +07
Astronomical Twilight 5:06 AM +07 7:17 PM +07
Moon 3:25 AM +07 (11/19) 3:39 PM +07 (11/19)
Length of Visible Light 12h 28m
Length of Day
11h 44m
Waning Crescent, 12% of the Moon is Illuminated
Nov 19
Waning Crescent
Nov 22
New
Nov 29
First Quarter
Dec 6
Full
Dec 14
Last Quarter

Hourly Weather History & Observations

Time (+07) Temp. Heat Index Dew Point Humidity Pressure Visibility Wind Dir Wind Speed Gust Speed Precip Events Conditions
12:00 AM 78.8 °F - 71.6 °F 78% 29.89 in 5.0 mi ENE 4.6 mph - N/A   Mostly Cloudy
1:00 AM 80 °F - 76 °F 83% 29.86 in 6 mi Calm Calm - -   Mist
1:00 AM 80.6 °F 85.4 °F 73.4 °F 79% 29.89 in 5.0 mi East 4.6 mph - N/A   Mostly Cloudy
2:00 AM 80.6 °F 84.6 °F 71.6 °F 74% 29.86 in 5.0 mi NE 4.6 mph - N/A   Mostly Cloudy
3:00 AM 77.0 °F - 71.6 °F 83% 29.86 in 5.0 mi Variable 2.3 mph - N/A   Mostly Cloudy
4:00 AM 77 °F - 75 °F 90% 29.82 in 6 mi Calm Calm - -   Mist
4:00 AM 78.8 °F - 71.6 °F 78% 29.83 in 5.0 mi Variable 2.3 mph - N/A   Mostly Cloudy
5:30 AM 78.8 °F - 71.6 °F 78% 29.83 in 5.0 mi ENE 4.6 mph - N/A   Mostly Cloudy
6:00 AM 78.8 °F - 71.6 °F 78% 29.83 in 5.0 mi NE 4.6 mph - N/A   Mostly Cloudy
6:30 AM 78.8 °F - 71.6 °F 78% 29.83 in 5.0 mi NE 6.9 mph - N/A   Mostly Cloudy
7:00 AM 77 °F - 74 °F 88% 29.82 in 6 mi Calm Calm - -   Mist
7:00 AM 78.8 °F - 71.6 °F 78% 29.83 in 5.6 mi ENE 3.5 mph - N/A   Mostly Cloudy
7:30 AM 80.6 °F 85.4 °F 73.4 °F 79% 29.86 in 5.6 mi Variable 3.5 mph - N/A   Mostly Cloudy
8:00 AM 82.4 °F 88.2 °F 73.4 °F 74% 29.86 in 5.6 mi ENE 4.6 mph - N/A   Mostly Cloudy
8:30 AM 82.4 °F 89.5 °F 75.2 °F 79% 29.86 in 6.2 mi ENE 9.2 mph - N/A   Mostly Cloudy
9:00 AM 84.2 °F 90.9 °F 73.4 °F 70% 29.86 in 6.2 mi ENE 6.9 mph - N/A   Mostly Cloudy
9:30 AM 86.0 °F 93.4 °F 73.4 °F 66% 29.89 in 6.2 mi ENE 8.1 mph - N/A   Mostly Cloudy
10:00 AM 88 °F - 75 °F 57% 29.84 in 6 mi ENE 5.8 mph - -   Scattered Clouds
10:00 AM 86.0 °F 93.4 °F 73.4 °F 66% 29.89 in 6.2 mi Variable 9.2 mph - N/A   Scattered Clouds
10:30 AM 86.0 °F 93.4 °F 73.4 °F 66% 29.86 in 6.2 mi East 9.2 mph - N/A   Scattered Clouds
11:00 AM 86.0 °F 93.4 °F 73.4 °F 66% 29.86 in 6.2 mi East 12.7 mph - N/A   Scattered Clouds
11:30 AM 87.8 °F 95.6 °F 73.4 °F 62% 29.86 in 6.2 mi East 11.5 mph - N/A   Scattered Clouds
12:00 PM 87.8 °F 95.6 °F 73.4 °F 62% 29.83 in 6.2 mi East 11.5 mph - N/A   Scattered Clouds
12:30 PM 87.8 °F 95.6 °F 73.4 °F 62% 29.83 in 6.2 mi East 9.2 mph - N/A   Scattered Clouds
1:00 PM 90 °F - 75 °F 53% 29.80 in 6 mi East 10.4 mph - -   Scattered Clouds
1:00 PM 89.6 °F 98.2 °F 73.4 °F 59% 29.80 in 6.2 mi East 10.4 mph - N/A   Scattered Clouds
1:30 PM 87.8 °F 95.6 °F 73.4 °F 62% 29.80 in 6.2 mi East 10.4 mph - N/A   Scattered Clouds
2:00 PM 89.6 °F 96.2 °F 71.6 °F 55% 29.77 in 6.2 mi East 11.5 mph - N/A   Mostly Cloudy
2:30 PM 87.8 °F 93.8 °F 71.6 °F 58% 29.77 in 6.2 mi East 11.5 mph - N/A   Mostly Cloudy
3:00 PM 87.8 °F 95.6 °F 73.4 °F 62% 29.77 in 6.2 mi ESE 9.2 mph - N/A   Mostly Cloudy
3:30 PM 86.0 °F 93.4 °F 73.4 °F 66% 29.77 in 5.0 mi ESE 8.1 mph - N/A   Mostly Cloudy
4:00 PM 86 °F - 77 °F 67% 29.76 in 6 mi SE 8.1 mph - - Thunderstorm Thunderstorm
4:00 PM 84.2 °F 92.3 °F 75.2 °F 74% 29.77 in 2.5 mi SE 8.1 mph - N/A Rain , Thunderstorm Thunderstorms and Rain
4:30 PM 75.2 °F - 71.6 °F 89% 29.80 in 3.1 mi NNE 4.6 mph - N/A Rain , Thunderstorm Light Thunderstorms and Rain
5:00 PM 77.0 °F - 73.4 °F 89% 29.80 in 1.9 mi ESE 4.6 mph - N/A Rain , Thunderstorm Thunderstorms and Rain
5:30 PM 77.0 °F - 75.2 °F 94% 29.80 in 2.5 mi East 5.8 mph - N/A Rain Rain
6:00 PM 77.0 °F - 73.4 °F 89% 29.80 in 3.7 mi ESE 5.8 mph - N/A Rain Light Rain
6:30 PM 77.0 °F - 75.2 °F 94% 29.83 in 4.3 mi Calm Calm - N/A   Mostly Cloudy
7:00 PM 78 °F - 76 °F 93% 29.79 in 4 mi Calm Calm - - Rain Light Rain
7:00 PM 77.0 °F - 75.2 °F 94% 29.83 in 4.3 mi Variable 1.2 mph - N/A Rain Light Rain
7:30 PM 77.0 °F - 75.2 °F 94% 29.86 in 4.3 mi Variable 2.3 mph - N/A   Mostly Cloudy
8:00 PM 77.0 °F - 75.2 °F 94% 29.86 in 5.0 mi Variable 1.2 mph - N/A   Mostly Cloudy
8:30 PM 77.0 °F - 75.2 °F 94% 29.86 in 5.0 mi Variable 1.2 mph - N/A   Mostly Cloudy
9:00 PM 78.8 °F - 75.2 °F 89% 29.89 in 5.0 mi Variable 2.3 mph - N/A   Mostly Cloudy
9:30 PM 78.8 °F - 75.2 °F 89% 29.89 in 5.6 mi Variable 1.2 mph - N/A   Mostly Cloudy
10:00 PM 80 °F - 77 °F 89% 29.86 in 6 mi Calm Calm - -   Scattered Clouds
10:00 PM 78.8 °F - 75.2 °F 89% 29.89 in 5.6 mi NE 4.6 mph - N/A   Mostly Cloudy
10:30 PM 78.8 °F - 73.4 °F 83% 29.89 in 5.6 mi East 4.6 mph - N/A   Mostly Cloudy
11:00 PM 78.8 °F - 75.2 °F 89% 29.89 in 5.6 mi ENE 4.6 mph - N/A   Mostly Cloudy
11:30 PM 80.6 °F 85.4 °F 73.4 °F 79% 29.89 in 5.6 mi NE 5.8 mph - N/A   Mostly Cloudy